Location: Banff
(51.1667°N, 115.5667°W)
Time: 06:19:30
(UTC+00:00)

S-56A Canister/Altair - Pass Details

Date: 30 November 2020
Orbit: 633 x 2499 km, 38.9° (Epoch: 21 January)

Event Time Altitude Azimuth Distance (km) Brightness Sun altitude
Rises 05:09:44 0° 253° (WSW) 5,172 12.1 -49.8°
Reaches altitude 10° 05:13:56 10° 245° (WSW) 3,858 11.3 -50.3°
Enters shadow 05:15:31 15° 240° (WSW) 3,374 10.9 -50.5°
Maximum altitude 05:22:04 33° 187° (S) 1,925 - -51.4°
Drops below altitude 10° 05:27:48 10° 125° (SE) 2,693 - -52.1°
Sets 05:30:14 0° 115° (ESE) 3,445 - -52.4°
